Year,Month,Day,Hour,Minute,Value (Times are PST for temperature in C)
2019,09,20,00,00,14.90
2019,09,20,00,01,14.90
2019,09,20,00,02,14.90
2019,09,20,00,03,14.90
2019,09,20,00,04,14.90
2019,09,20,00,05,14.90
2019,09,20,00,06,14.90
2019,09,20,00,07,14.90
2019,09,20,00,08,14.90
2019,09,20,00,09,14.90
2019,09,20,00,10,14.90
2019,09,20,00,11,14.90
2019,09,20,00,12,14.90
2019,09,20,00,13,14.90
2019,09,20,00,14,14.90
2019,09,20,00,15,14.90
2019,09,20,00,16,14.90
2019,09,20,00,17,14.90
2019,09,20,00,18,14.90
2019,09,20,00,19,14.90
2019,09,20,00,20,14.90
2019,09,20,00,21,14.90
2019,09,20,00,22,14.90
2019,09,20,00,23,14.90
2019,09,20,00,24,14.90
2019,09,20,00,25,14.90
2019,09,20,00,26,14.90
2019,09,20,00,27,14.90
2019,09,20,00,28,14.90
2019,09,20,00,29,14.90
2019,09,20,00,30,14.90
2019,09,20,00,31,14.90
2019,09,20,00,32,14.90
2019,09,20,00,33,14.90
2019,09,20,00,34,14.90
2019,09,20,00,35,14.90
2019,09,20,00,36,14.90
2019,09,20,00,37,14.90
2019,09,20,00,38,14.90
2019,09,20,00,39,14.90
2019,09,20,00,40,14.90
2019,09,20,00,41,14.90
2019,09,20,00,42,14.90
2019,09,20,00,43,14.90
2019,09,20,00,44,14.90
2019,09,20,00,45,14.90
2019,09,20,00,46,14.90
2019,09,20,00,47,14.90
2019,09,20,00,48,14.90
2019,09,20,00,49,14.90
2019,09,20,00,50,15.00
2019,09,20,00,51,15.00
2019,09,20,00,52,15.10
2019,09,20,00,53,15.10
2019,09,20,00,54,15.10
2019,09,20,00,55,15.10
2019,09,20,00,56,15.10
2019,09,20,00,57,15.10
2019,09,20,00,58,15.10
2019,09,20,00,59,15.10
2019,09,20,01,00,15.10
2019,09,20,01,01,15.10
2019,09,20,01,02,15.10
2019,09,20,01,03,15.10
2019,09,20,01,04,15.10
2019,09,20,01,05,15.10
2019,09,20,01,06,15.10
2019,09,20,01,07,15.10
2019,09,20,01,08,15.10
2019,09,20,01,09,15.10
2019,09,20,01,10,15.10
2019,09,20,01,11,15.10
2019,09,20,01,12,15.10
2019,09,20,01,13,15.10
2019,09,20,01,14,15.10
2019,09,20,01,15,15.10
2019,09,20,01,16,15.10
2019,09,20,01,17,15.10
2019,09,20,01,18,15.10
2019,09,20,01,19,15.10
2019,09,20,01,20,15.10
2019,09,20,01,21,15.10
2019,09,20,01,22,15.10
2019,09,20,01,23,15.10
2019,09,20,01,24,15.10
2019,09,20,01,25,15.10
2019,09,20,01,26,15.10
2019,09,20,01,27,15.10
2019,09,20,01,28,15.10
2019,09,20,01,29,15.10
2019,09,20,01,30,15.10
2019,09,20,01,31,15.10
2019,09,20,01,32,15.10
2019,09,20,01,33,15.10
2019,09,20,01,34,15.10
2019,09,20,01,35,15.10
2019,09,20,01,36,15.10
2019,09,20,01,37,15.10
2019,09,20,01,38,15.10
2019,09,20,01,39,15.10
2019,09,20,01,40,15.10
2019,09,20,01,41,15.10
2019,09,20,01,42,15.10
2019,09,20,01,43,15.10
2019,09,20,01,44,15.00
2019,09,20,01,45,15.00
2019,09,20,01,46,15.00
2019,09,20,01,47,15.00
2019,09,20,01,48,15.00
2019,09,20,01,49,15.00
2019,09,20,01,50,15.00
2019,09,20,01,51,15.00
2019,09,20,01,52,15.00
2019,09,20,01,53,15.00
2019,09,20,01,54,15.00
2019,09,20,01,55,15.00
2019,09,20,01,56,15.00
2019,09,20,01,57,15.00
2019,09,20,01,58,15.00
2019,09,20,01,59,14.90
2019,09,20,02,00,14.90
2019,09,20,02,01,14.90
2019,09,20,02,02,14.90
2019,09,20,02,03,14.90
2019,09,20,02,04,14.90
2019,09,20,02,05,14.90
2019,09,20,02,06,14.90
2019,09,20,02,07,14.90
2019,09,20,02,08,14.90
2019,09,20,02,09,14.80
2019,09,20,02,10,14.80
2019,09,20,02,11,14.80
2019,09,20,02,12,14.80
2019,09,20,02,13,14.80
2019,09,20,02,14,14.80
2019,09,20,02,15,14.80
2019,09,20,02,16,14.80
2019,09,20,02,17,14.80
2019,09,20,02,18,14.80
2019,09,20,02,19,14.80
2019,09,20,02,20,14.80
2019,09,20,02,21,14.80
2019,09,20,02,22,14.80
2019,09,20,02,23,14.80
2019,09,20,02,24,14.70
2019,09,20,02,25,14.70
2019,09,20,02,26,14.70
2019,09,20,02,27,14.70
2019,09,20,02,28,14.70
2019,09,20,02,29,14.70
2019,09,20,02,30,14.70
2019,09,20,02,31,14.70
2019,09,20,02,32,14.70
2019,09,20,02,33,14.70
2019,09,20,02,34,14.70
2019,09,20,02,35,14.70
2019,09,20,02,36,14.70
2019,09,20,02,37,14.70
2019,09,20,02,38,14.70
2019,09,20,02,39,14.70
2019,09,20,02,40,14.70
2019,09,20,02,41,14.70
2019,09,20,02,42,14.70
2019,09,20,02,43,14.70
2019,09,20,02,44,14.70
2019,09,20,02,45,14.70
2019,09,20,02,46,14.70
2019,09,20,02,47,14.70
2019,09,20,02,48,14.60
2019,09,20,02,49,14.60
2019,09,20,02,50,14.60
2019,09,20,02,51,14.60
2019,09,20,02,52,14.60
2019,09,20,02,53,14.60
2019,09,20,02,54,14.60
2019,09,20,02,55,14.60
2019,09,20,02,56,14.60
2019,09,20,02,57,14.60
2019,09,20,02,58,14.60
2019,09,20,02,59,14.60
2019,09,20,03,00,14.50
2019,09,20,03,01,14.50
2019,09,20,03,02,14.50
2019,09,20,03,03,14.50
2019,09,20,03,04,14.50
2019,09,20,03,05,14.50
2019,09,20,03,06,14.40
2019,09,20,03,07,14.40
2019,09,20,03,08,14.40
2019,09,20,03,09,14.40
2019,09,20,03,10,14.40
2019,09,20,03,11,14.40
2019,09,20,03,12,14.40
2019,09,20,03,13,14.40
2019,09,20,03,14,14.40
2019,09,20,03,15,14.40
2019,09,20,03,16,14.40
2019,09,20,03,17,14.40
2019,09,20,03,18,14.40
2019,09,20,03,19,14.30
2019,09,20,03,20,14.30
2019,09,20,03,21,14.40
2019,09,20,03,22,14.30
2019,09,20,03,23,14.30
2019,09,20,03,24,14.30
2019,09,20,03,25,14.30
2019,09,20,03,26,14.40
2019,09,20,03,27,14.30
2019,09,20,03,28,14.40
2019,09,20,03,29,14.30
2019,09,20,03,30,14.30
2019,09,20,03,31,14.30
2019,09,20,03,32,14.30
2019,09,20,03,33,14.30
2019,09,20,03,34,14.40
2019,09,20,03,35,14.40
2019,09,20,03,36,14.40
2019,09,20,03,37,14.40
2019,09,20,03,38,14.40
2019,09,20,03,39,14.40
2019,09,20,03,40,14.40
2019,09,20,03,41,14.40
2019,09,20,03,42,14.30
2019,09,20,03,43,14.30
2019,09,20,03,44,14.30
2019,09,20,03,45,14.30
2019,09,20,03,46,14.30
2019,09,20,03,47,14.30
2019,09,20,03,48,14.30
2019,09,20,03,49,14.30
2019,09,20,03,50,14.30
2019,09,20,03,51,14.30
2019,09,20,03,52,14.30
2019,09,20,03,53,14.30
2019,09,20,03,54,14.30
2019,09,20,03,55,14.30
2019,09,20,03,56,14.30
2019,09,20,03,57,14.30
2019,09,20,03,58,14.30
2019,09,20,03,59,14.30
2019,09,20,04,00,14.30
2019,09,20,04,01,14.30
2019,09,20,04,02,14.30
2019,09,20,04,03,14.30
2019,09,20,04,04,14.30
2019,09,20,04,05,14.30
2019,09,20,04,06,14.30
2019,09,20,04,07,14.20
2019,09,20,04,08,14.20
2019,09,20,04,09,14.20
2019,09,20,04,10,14.20
2019,09,20,04,11,14.20
2019,09,20,04,12,14.20
2019,09,20,04,13,14.20
2019,09,20,04,14,14.20
2019,09,20,04,15,14.20
2019,09,20,04,16,14.20
2019,09,20,04,17,14.20
2019,09,20,04,18,14.20
2019,09,20,04,19,14.20
2019,09,20,04,20,14.20
2019,09,20,04,21,14.20
2019,09,20,04,22,14.20
2019,09,20,04,23,14.20
2019,09,20,04,24,14.20
2019,09,20,04,25,14.20
2019,09,20,04,26,14.20
2019,09,20,04,27,14.20
2019,09,20,04,28,14.20
2019,09,20,04,29,14.20
2019,09,20,04,30,14.20
2019,09,20,04,31,14.20
2019,09,20,04,32,14.20
2019,09,20,04,33,14.10
2019,09,20,04,34,14.10
2019,09,20,04,35,14.10
2019,09,20,04,36,14.10
2019,09,20,04,37,14.10
2019,09,20,04,38,14.10
2019,09,20,04,39,14.10
2019,09,20,04,40,14.10
2019,09,20,04,41,14.10
2019,09,20,04,42,14.10
2019,09,20,04,43,14.10
2019,09,20,04,44,14.10
2019,09,20,04,45,14.10
2019,09,20,04,46,14.10
2019,09,20,04,47,14.10
2019,09,20,04,48,14.10
2019,09,20,04,49,14.10
2019,09,20,04,50,14.10
2019,09,20,04,51,14.10
2019,09,20,04,52,14.10
2019,09,20,04,53,14.10
2019,09,20,04,54,14.10
2019,09,20,04,55,14.10
2019,09,20,04,56,14.10
2019,09,20,04,57,14.10
2019,09,20,04,58,14.10
2019,09,20,04,59,14.10
2019,09,20,05,00,14.10
2019,09,20,05,01,14.00
2019,09,20,05,02,14.00
2019,09,20,05,03,14.00
2019,09,20,05,04,14.00
2019,09,20,05,05,14.00
2019,09,20,05,06,14.00
2019,09,20,05,07,14.00
2019,09,20,05,08,14.00
2019,09,20,05,09,13.90
2019,09,20,05,10,14.00
2019,09,20,05,11,13.90
2019,09,20,05,12,13.90
2019,09,20,05,13,13.90
2019,09,20,05,14,13.90
2019,09,20,05,15,13.90
2019,09,20,05,16,13.90
2019,09,20,05,17,13.90
2019,09,20,05,18,13.90
2019,09,20,05,19,13.90
2019,09,20,05,20,13.90
2019,09,20,05,21,13.90
2019,09,20,05,22,13.90
2019,09,20,05,23,13.90
2019,09,20,05,24,13.90
2019,09,20,05,25,13.90
2019,09,20,05,26,13.90
2019,09,20,05,27,13.90
2019,09,20,05,28,13.90
2019,09,20,05,29,13.90
2019,09,20,05,30,13.90
2019,09,20,05,31,13.90
2019,09,20,05,32,13.90
2019,09,20,05,33,13.90
2019,09,20,05,34,13.90
2019,09,20,05,35,13.90
2019,09,20,05,36,13.90
2019,09,20,05,37,13.90
2019,09,20,05,38,13.90
2019,09,20,05,39,13.90
2019,09,20,05,40,13.80
2019,09,20,05,41,13.80
2019,09,20,05,42,13.80
2019,09,20,05,43,13.80
2019,09,20,05,44,13.80
2019,09,20,05,45,13.80
2019,09,20,05,46,13.80
2019,09,20,05,47,13.80
2019,09,20,05,48,13.80
2019,09,20,05,49,13.80
2019,09,20,05,50,13.80
2019,09,20,05,51,13.80
2019,09,20,05,52,13.80
2019,09,20,05,53,13.80
2019,09,20,05,54,13.80
2019,09,20,05,55,13.80
2019,09,20,05,56,13.80
2019,09,20,05,57,13.80
2019,09,20,05,58,13.80
2019,09,20,05,59,13.80
2019,09,20,06,00,13.70
2019,09,20,06,01,13.70
2019,09,20,06,02,13.70
2019,09,20,06,03,13.70
2019,09,20,06,04,13.70
2019,09,20,06,05,13.70
2019,09,20,06,06,13.70
2019,09,20,06,07,13.70
2019,09,20,06,08,13.70
2019,09,20,06,09,13.70
2019,09,20,06,10,13.70
2019,09,20,06,11,13.70
2019,09,20,06,12,13.70
2019,09,20,06,13,13.70
2019,09,20,06,14,13.70
2019,09,20,06,15,13.70
2019,09,20,06,16,13.70
2019,09,20,06,17,13.70
2019,09,20,06,18,13.70
2019,09,20,06,19,13.70
2019,09,20,06,20,13.70
2019,09,20,06,21,13.70
2019,09,20,06,22,13.70
2019,09,20,06,23,13.70
2019,09,20,06,24,13.70
2019,09,20,06,25,13.70
2019,09,20,06,26,13.70
2019,09,20,06,27,13.70
2019,09,20,06,28,13.70
2019,09,20,06,29,13.70
2019,09,20,06,30,13.70
2019,09,20,06,31,13.70
2019,09,20,06,32,13.70
2019,09,20,06,33,13.70
2019,09,20,06,34,13.70
2019,09,20,06,35,13.70
2019,09,20,06,36,13.70
2019,09,20,06,37,13.70
2019,09,20,06,38,13.70
2019,09,20,06,39,13.70
2019,09,20,06,40,13.70
2019,09,20,06,41,13.80
2019,09,20,06,42,13.80
2019,09,20,06,43,13.80
2019,09,20,06,44,13.80
2019,09,20,06,45,13.80
2019,09,20,06,46,13.80
2019,09,20,06,47,13.80
2019,09,20,06,48,13.80
2019,09,20,06,49,13.80
2019,09,20,06,50,13.80
2019,09,20,06,51,13.80
2019,09,20,06,52,13.80
2019,09,20,06,53,13.80
2019,09,20,06,54,13.80
2019,09,20,06,55,13.80
2019,09,20,06,56,13.80
2019,09,20,06,57,13.70
2019,09,20,06,58,13.70
2019,09,20,06,59,13.70
2019,09,20,07,00,13.70
2019,09,20,07,01,13.70
2019,09,20,07,02,13.70
2019,09,20,07,03,13.70
2019,09,20,07,04,13.60
2019,09,20,07,05,13.60
2019,09,20,07,06,13.60
2019,09,20,07,07,13.60
2019,09,20,07,08,13.60
2019,09,20,07,09,13.60
2019,09,20,07,10,13.60
2019,09,20,07,11,13.60
2019,09,20,07,12,13.50
2019,09,20,07,13,13.50
2019,09,20,07,14,13.50
2019,09,20,07,15,13.40
2019,09,20,07,16,13.40
2019,09,20,07,17,13.40
2019,09,20,07,18,13.40
2019,09,20,07,19,13.40
2019,09,20,07,20,13.40
2019,09,20,07,21,13.40
2019,09,20,07,22,13.30
2019,09,20,07,23,13.30
2019,09,20,07,24,13.30
2019,09,20,07,25,13.30
2019,09,20,07,26,13.30
2019,09,20,07,27,13.30
2019,09,20,07,28,13.30
2019,09,20,07,29,13.30
2019,09,20,07,30,13.30
2019,09,20,07,31,13.30
2019,09,20,07,32,13.30
2019,09,20,07,33,13.30
2019,09,20,07,34,13.30
2019,09,20,07,35,13.30
2019,09,20,07,36,13.30
2019,09,20,07,37,13.20
2019,09,20,07,38,13.20
2019,09,20,07,39,13.20
2019,09,20,07,40,13.20
2019,09,20,07,41,13.20
2019,09,20,07,42,13.20
2019,09,20,07,43,13.20
2019,09,20,07,44,13.20
2019,09,20,07,45,13.20
2019,09,20,07,46,13.20
2019,09,20,07,47,13.20
2019,09,20,07,48,13.20
2019,09,20,07,49,13.20
2019,09,20,07,50,13.20
2019,09,20,07,51,13.20
2019,09,20,07,52,13.20
2019,09,20,07,53,13.20
2019,09,20,07,54,13.20
2019,09,20,07,55,13.20
2019,09,20,07,56,13.20
2019,09,20,07,57,13.20
2019,09,20,07,58,13.20
2019,09,20,07,59,13.20
2019,09,20,08,00,13.20
2019,09,20,08,01,13.20
2019,09,20,08,02,13.20
2019,09,20,08,03,13.20
2019,09,20,08,04,13.30
2019,09,20,08,05,13.30
2019,09,20,08,06,13.30
2019,09,20,08,07,13.30
2019,09,20,08,08,13.30
2019,09,20,08,09,13.30
2019,09,20,08,10,13.30
2019,09,20,08,11,13.30
2019,09,20,08,12,13.30
2019,09,20,08,13,13.30
2019,09,20,08,14,13.30
2019,09,20,08,15,13.30
2019,09,20,08,16,13.40
2019,09,20,08,17,13.40
2019,09,20,08,18,13.40
2019,09,20,08,19,13.40
2019,09,20,08,20,13.40
2019,09,20,08,21,13.50
2019,09,20,08,22,13.50
2019,09,20,08,23,13.50
2019,09,20,08,24,13.60
2019,09,20,08,25,13.60
2019,09,20,08,26,13.60
2019,09,20,08,27,13.60
2019,09,20,08,28,13.60
2019,09,20,08,29,13.70
2019,09,20,08,30,13.70
2019,09,20,08,31,13.70
2019,09,20,08,32,13.70
2019,09,20,08,33,13.80
2019,09,20,08,34,13.80
2019,09,20,08,35,13.80
2019,09,20,08,36,13.80
2019,09,20,08,37,13.90
2019,09,20,08,38,13.90
2019,09,20,08,39,13.90
2019,09,20,08,40,13.90
2019,09,20,08,41,14.00
2019,09,20,08,42,14.10
2019,09,20,08,43,14.10
2019,09,20,08,44,14.10
2019,09,20,08,45,14.20
2019,09,20,08,46,14.20
2019,09,20,08,47,14.20
2019,09,20,08,48,14.30
2019,09,20,08,49,14.30
2019,09,20,08,50,14.30
2019,09,20,08,51,14.40
2019,09,20,08,52,14.40
2019,09,20,08,53,14.40
2019,09,20,08,54,14.50
2019,09,20,08,55,14.50
2019,09,20,08,56,14.50
2019,09,20,08,57,14.60
2019,09,20,08,58,14.60
2019,09,20,08,59,14.60
2019,09,20,09,00,14.60
2019,09,20,09,01,14.60
2019,09,20,09,02,14.60
2019,09,20,09,03,14.60
2019,09,20,09,04,14.60
2019,09,20,09,05,14.60
2019,09,20,09,06,14.60
2019,09,20,09,07,14.60
2019,09,20,09,08,14.60
2019,09,20,09,09,14.70
2019,09,20,09,10,14.70
2019,09,20,09,11,14.70
2019,09,20,09,12,14.70
2019,09,20,09,13,14.80
2019,09,20,09,14,14.80
2019,09,20,09,15,14.80
2019,09,20,09,16,14.90
2019,09,20,09,17,14.90
2019,09,20,09,18,15.00
2019,09,20,09,19,15.10
2019,09,20,09,20,15.10
2019,09,20,09,21,15.20
2019,09,20,09,22,15.20
2019,09,20,09,23,15.20
2019,09,20,09,24,15.30
2019,09,20,09,25,15.30
2019,09,20,09,26,15.40
2019,09,20,09,27,15.40
2019,09,20,09,28,15.50
2019,09,20,09,29,15.60
2019,09,20,09,30,15.70
2019,09,20,09,31,15.80
2019,09,20,09,32,15.90
2019,09,20,09,33,15.90
2019,09,20,09,34,16.00
2019,09,20,09,35,16.10
2019,09,20,09,36,16.10
2019,09,20,09,37,16.20
2019,09,20,09,38,16.20
2019,09,20,09,39,16.20
2019,09,20,09,40,16.30
2019,09,20,09,41,16.30
2019,09,20,09,42,16.30
2019,09,20,09,43,16.40
2019,09,20,09,44,16.40
2019,09,20,09,45,16.50
2019,09,20,09,46,16.50
2019,09,20,09,47,16.60
2019,09,20,09,48,16.60
2019,09,20,09,49,16.70
2019,09,20,09,50,16.70
2019,09,20,09,51,16.70
2019,09,20,09,52,16.70
2019,09,20,09,53,16.70
2019,09,20,09,54,16.70
2019,09,20,09,55,16.70
2019,09,20,09,56,16.70
2019,09,20,09,57,16.60
2019,09,20,09,58,16.60
2019,09,20,09,59,16.40
2019,09,20,10,00,16.40
2019,09,20,10,01,16.40
2019,09,20,10,02,16.30
2019,09,20,10,03,16.30
2019,09,20,10,04,16.30
2019,09,20,10,05,16.40
2019,09,20,10,06,16.40
2019,09,20,10,07,16.40
2019,09,20,10,08,16.50
2019,09,20,10,09,16.60
2019,09,20,10,10,16.60
2019,09,20,10,11,16.60
2019,09,20,10,12,16.60
2019,09,20,10,13,16.70
2019,09,20,10,14,16.70
2019,09,20,10,15,16.80
2019,09,20,10,16,16.80
2019,09,20,10,17,16.90
2019,09,20,10,18,16.90
2019,09,20,10,19,17.00
2019,09,20,10,20,17.10
2019,09,20,10,21,17.10
2019,09,20,10,22,17.20
2019,09,20,10,23,17.20
2019,09,20,10,24,17.20
2019,09,20,10,25,17.30
2019,09,20,10,26,17.30
2019,09,20,10,27,17.40
2019,09,20,10,28,17.40
2019,09,20,10,29,17.40
2019,09,20,10,30,17.40
2019,09,20,10,31,17.50
2019,09,20,10,32,17.50
2019,09,20,10,33,17.60
2019,09,20,10,34,17.60
2019,09,20,10,35,17.60
2019,09,20,10,36,17.60
2019,09,20,10,37,17.70
2019,09,20,10,38,17.70
2019,09,20,10,39,17.80
2019,09,20,10,40,17.80
2019,09,20,10,41,17.90
2019,09,20,10,42,17.90
2019,09,20,10,43,18.00
2019,09,20,10,44,18.10
2019,09,20,10,45,18.20
2019,09,20,10,46,18.20
2019,09,20,10,47,18.30
2019,09,20,10,48,18.30
2019,09,20,10,49,18.30
2019,09,20,10,50,18.40
2019,09,20,10,51,18.40
2019,09,20,10,52,18.40
2019,09,20,10,53,18.40
2019,09,20,10,54,18.50
2019,09,20,10,55,18.50
2019,09,20,10,56,18.50
2019,09,20,10,57,18.40
2019,09,20,10,58,18.40
2019,09,20,10,59,18.40
2019,09,20,11,00,18.40
2019,09,20,11,01,18.40
2019,09,20,11,02,18.40
2019,09,20,11,03,18.40
2019,09,20,11,04,18.50
2019,09,20,11,05,18.60
2019,09,20,11,06,18.60
2019,09,20,11,07,18.70
2019,09,20,11,08,18.80
2019,09,20,11,09,18.80
2019,09,20,11,10,18.90
2019,09,20,11,11,19.00
2019,09,20,11,12,19.10
2019,09,20,11,13,19.20
2019,09,20,11,14,19.20
2019,09,20,11,15,19.30
2019,09,20,11,16,19.30
2019,09,20,11,17,19.40
2019,09,20,11,18,19.40
2019,09,20,11,19,19.50
2019,09,20,11,20,19.60
2019,09,20,11,21,19.60
2019,09,20,11,22,19.60
2019,09,20,11,23,19.60
2019,09,20,11,24,19.70
2019,09,20,11,25,19.70
2019,09,20,11,26,19.80
2019,09,20,11,27,19.80
2019,09,20,11,28,19.80
2019,09,20,11,29,19.80
2019,09,20,11,30,19.80
2019,09,20,11,31,19.80
2019,09,20,11,32,19.80
2019,09,20,11,33,19.70
2019,09,20,11,34,19.70
2019,09,20,11,35,19.60
2019,09,20,11,36,19.60
2019,09,20,11,37,19.60
2019,09,20,11,38,19.50
2019,09,20,11,39,19.40
2019,09,20,11,40,19.40
2019,09,20,11,41,19.40
2019,09,20,11,42,19.40
2019,09,20,11,43,19.50
2019,09,20,11,44,19.60
2019,09,20,11,45,19.60
2019,09,20,11,46,19.70
2019,09,20,11,47,19.70
2019,09,20,11,48,19.80
2019,09,20,11,49,19.80
2019,09,20,11,50,19.80
2019,09,20,11,51,19.90
2019,09,20,11,52,19.80
2019,09,20,11,53,19.80
2019,09,20,11,54,19.70
2019,09,20,11,55,19.70
2019,09,20,11,56,19.70
2019,09,20,11,57,19.60
2019,09,20,11,58,19.70
2019,09,20,11,59,19.70
2019,09,20,12,00,19.80
2019,09,20,12,01,19.80
2019,09,20,12,02,19.90
2019,09,20,12,03,19.90
2019,09,20,12,04,20.10
2019,09,20,12,05,20.10
2019,09,20,12,06,20.20
2019,09,20,12,07,20.20
2019,09,20,12,08,20.20
2019,09,20,12,09,20.10
2019,09,20,12,10,20.10
2019,09,20,12,11,20.10
2019,09,20,12,12,20.10
2019,09,20,12,13,20.00
2019,09,20,12,14,20.00
2019,09,20,12,15,20.10
2019,09,20,12,16,20.10
2019,09,20,12,17,20.10
2019,09,20,12,18,20.10
2019,09,20,12,19,20.10
2019,09,20,12,20,20.10
2019,09,20,12,21,20.10
2019,09,20,12,22,20.10
2019,09,20,12,23,20.10
2019,09,20,12,24,20.00
2019,09,20,12,25,20.00
2019,09,20,12,26,20.00
2019,09,20,12,27,20.10
2019,09,20,12,28,20.10
2019,09,20,12,29,20.10
2019,09,20,12,30,20.20
2019,09,20,12,31,20.10
2019,09,20,12,32,20.20
2019,09,20,12,33,20.20
2019,09,20,12,34,20.20
2019,09,20,12,35,20.20
2019,09,20,12,36,20.20
2019,09,20,12,37,20.20
2019,09,20,12,38,20.20
2019,09,20,12,39,20.30
2019,09,20,12,40,20.30
2019,09,20,12,41,20.30
2019,09,20,12,42,20.40
2019,09,20,12,43,20.40
2019,09,20,12,44,20.40
2019,09,20,12,45,20.50
2019,09,20,12,46,20.60
2019,09,20,12,47,20.70
2019,09,20,12,48,20.70
2019,09,20,12,49,20.80
2019,09,20,12,50,20.80
2019,09,20,12,51,20.90
2019,09,20,12,52,21.00
2019,09,20,12,53,21.10
2019,09,20,12,54,21.10
2019,09,20,12,55,21.20
2019,09,20,12,56,21.20
2019,09,20,12,57,21.20
2019,09,20,12,58,21.20
2019,09,20,12,59,21.10
2019,09,20,13,00,21.10
2019,09,20,13,01,21.10
2019,09,20,13,02,21.10
2019,09,20,13,03,21.10
2019,09,20,13,04,21.10
2019,09,20,13,05,21.10
2019,09,20,13,06,21.10
2019,09,20,13,07,21.20
2019,09,20,13,08,21.30
2019,09,20,13,09,21.30
2019,09,20,13,10,21.20
2019,09,20,13,11,21.20
2019,09,20,13,12,21.20
2019,09,20,13,13,21.20
2019,09,20,13,14,21.20
2019,09,20,13,15,21.20
2019,09,20,13,16,21.20
2019,09,20,13,17,21.20
2019,09,20,13,18,21.20
2019,09,20,13,19,21.20
2019,09,20,13,20,21.30
2019,09,20,13,21,21.20
2019,09,20,13,22,21.20
2019,09,20,13,23,21.30
2019,09,20,13,24,21.20
2019,09,20,13,25,21.20
2019,09,20,13,26,21.30
2019,09,20,13,27,21.30
2019,09,20,13,28,21.30
2019,09,20,13,29,21.30
2019,09,20,13,30,21.30
2019,09,20,13,31,21.40
2019,09,20,13,32,21.30
2019,09,20,13,33,21.40
2019,09,20,13,34,21.40
2019,09,20,13,35,21.50
2019,09,20,13,36,21.60
2019,09,20,13,37,21.50
2019,09,20,13,38,21.50
2019,09,20,13,39,21.40
2019,09,20,13,40,21.40
2019,09,20,13,41,21.40
2019,09,20,13,42,21.30
2019,09,20,13,43,21.30
2019,09,20,13,44,21.40
2019,09,20,13,45,21.40
2019,09,20,13,46,21.40
2019,09,20,13,47,21.40
2019,09,20,13,48,21.40
2019,09,20,13,49,21.40
2019,09,20,13,50,21.40
2019,09,20,13,51,21.40
2019,09,20,13,52,21.30
2019,09,20,13,53,21.30
2019,09,20,13,54,21.30
2019,09,20,13,55,21.40
2019,09,20,13,56,21.50
2019,09,20,13,57,21.50
2019,09,20,13,58,21.60
2019,09,20,13,59,21.60
2019,09,20,14,00,21.70
2019,09,20,14,01,21.70
2019,09,20,14,02,21.80
2019,09,20,14,03,21.90
2019,09,20,14,04,22.00
2019,09,20,14,05,22.10
2019,09,20,14,06,22.20
2019,09,20,14,07,22.20
2019,09,20,14,08,22.20
2019,09,20,14,09,22.20
2019,09,20,14,10,22.30
2019,09,20,14,11,22.20
2019,09,20,14,12,22.00
2019,09,20,14,13,21.90
2019,09,20,14,14,21.80
2019,09,20,14,15,21.80
2019,09,20,14,16,21.70
2019,09,20,14,17,21.70
2019,09,20,14,18,21.60
2019,09,20,14,19,21.50
2019,09,20,14,20,21.50
2019,09,20,14,21,21.60
2019,09,20,14,22,21.60
2019,09,20,14,23,21.60
2019,09,20,14,24,21.60
2019,09,20,14,25,21.40
2019,09,20,14,26,21.40
2019,09,20,14,27,21.40
2019,09,20,14,28,21.40
2019,09,20,14,29,21.40
2019,09,20,14,30,21.30
2019,09,20,14,31,21.30
2019,09,20,14,32,21.20
2019,09,20,14,33,21.20
2019,09,20,14,34,21.10
2019,09,20,14,35,20.90
2019,09,20,14,36,20.80
2019,09,20,14,37,20.80
2019,09,20,14,38,20.80
2019,09,20,14,39,20.80
2019,09,20,14,40,20.80
2019,09,20,14,41,20.80
2019,09,20,14,42,20.80
2019,09,20,14,43,20.80
2019,09,20,14,44,20.80
2019,09,20,14,45,20.90
2019,09,20,14,46,20.90
2019,09,20,14,47,21.10
2019,09,20,14,48,21.10
2019,09,20,14,49,21.20
2019,09,20,14,50,21.20
2019,09,20,14,51,21.30
2019,09,20,14,52,21.20
2019,09,20,14,53,21.20
2019,09,20,14,54,21.10
2019,09,20,14,55,21.10
2019,09,20,14,56,21.20
2019,09,20,14,57,21.30
2019,09,20,14,58,21.30
2019,09,20,14,59,21.40
2019,09,20,15,00,21.40
2019,09,20,15,01,21.60
2019,09,20,15,02,21.60
2019,09,20,15,03,21.70
2019,09,20,15,04,21.70
2019,09,20,15,05,21.70
2019,09,20,15,06,21.80
2019,09,20,15,07,21.80
2019,09,20,15,08,21.80
2019,09,20,15,09,21.80
2019,09,20,15,10,21.80
2019,09,20,15,11,21.80
2019,09,20,15,12,21.80
2019,09,20,15,13,21.80
2019,09,20,15,14,21.70
2019,09,20,15,15,21.70
2019,09,20,15,16,21.70
2019,09,20,15,17,21.80
2019,09,20,15,18,21.80
2019,09,20,15,19,21.90
2019,09,20,15,20,21.90
2019,09,20,15,21,21.90
2019,09,20,15,22,22.00
2019,09,20,15,23,22.10
2019,09,20,15,24,22.10
2019,09,20,15,25,22.20
2019,09,20,15,26,22.20
2019,09,20,15,27,22.30
2019,09,20,15,28,22.30
2019,09,20,15,29,22.30
2019,09,20,15,30,22.40
2019,09,20,15,31,22.50
2019,09,20,15,32,22.60
2019,09,20,15,33,22.70
2019,09,20,15,34,22.70
2019,09,20,15,35,22.80
2019,09,20,15,36,22.80
2019,09,20,15,37,22.90
2019,09,20,15,38,22.90
2019,09,20,15,39,22.90
2019,09,20,15,40,23.00
2019,09,20,15,41,23.10
2019,09,20,15,42,23.10
2019,09,20,15,43,23.10
2019,09,20,15,44,23.20
2019,09,20,15,45,23.10
2019,09,20,15,46,23.10
2019,09,20,15,47,22.90
2019,09,20,15,48,22.90
2019,09,20,15,49,22.80
2019,09,20,15,50,22.80
2019,09,20,15,51,22.70
2019,09,20,15,52,22.70
2019,09,20,15,53,22.70
2019,09,20,15,54,22.80
2019,09,20,15,55,22.70
2019,09,20,15,56,22.80
2019,09,20,15,57,22.80
2019,09,20,15,58,22.90
2019,09,20,15,59,22.90
2019,09,20,16,00,22.90
2019,09,20,16,01,22.80
2019,09,20,16,02,22.80
2019,09,20,16,03,22.80
2019,09,20,16,04,22.70
2019,09,20,16,05,22.70
2019,09,20,16,06,22.70
2019,09,20,16,07,22.70
2019,09,20,16,08,22.70
2019,09,20,16,09,22.60
2019,09,20,16,10,22.60
2019,09,20,16,11,22.60
2019,09,20,16,12,22.60
2019,09,20,16,13,22.60
2019,09,20,16,14,22.60
2019,09,20,16,15,22.40
2019,09,20,16,16,22.40
2019,09,20,16,17,22.40
2019,09,20,16,18,22.40
2019,09,20,16,19,22.40
2019,09,20,16,20,22.30
2019,09,20,16,21,22.30
2019,09,20,16,22,22.20
2019,09,20,16,23,22.20
2019,09,20,16,24,22.20
2019,09,20,16,25,22.20
2019,09,20,16,26,22.10
2019,09,20,16,27,22.00
2019,09,20,16,28,22.00
2019,09,20,16,29,21.90
2019,09,20,16,30,22.00
2019,09,20,16,31,22.00
2019,09,20,16,32,22.10
2019,09,20,16,33,22.10
2019,09,20,16,34,22.10
2019,09,20,16,35,22.10
2019,09,20,16,36,22.10
2019,09,20,16,37,22.20
2019,09,20,16,38,22.20
2019,09,20,16,39,22.20
2019,09,20,16,40,22.30
2019,09,20,16,41,22.30
2019,09,20,16,42,22.40
2019,09,20,16,43,22.40
2019,09,20,16,44,22.40
2019,09,20,16,45,22.40
2019,09,20,16,46,22.40
2019,09,20,16,47,22.30
2019,09,20,16,48,22.30
2019,09,20,16,49,22.20
2019,09,20,16,50,22.20
2019,09,20,16,51,22.20
2019,09,20,16,52,22.20
2019,09,20,16,53,22.20
2019,09,20,16,54,22.30
2019,09,20,16,55,22.30
2019,09,20,16,56,22.30
2019,09,20,16,57,22.30
2019,09,20,16,58,22.40
2019,09,20,16,59,22.40
2019,09,20,17,00,22.40
2019,09,20,17,01,22.40
2019,09,20,17,02,22.40
2019,09,20,17,03,22.40
2019,09,20,17,04,22.30
2019,09,20,17,05,22.30
2019,09,20,17,06,22.30
2019,09,20,17,07,22.20
2019,09,20,17,08,22.20
2019,09,20,17,09,22.20
2019,09,20,17,10,22.10
2019,09,20,17,11,22.10
2019,09,20,17,12,22.00
2019,09,20,17,13,21.90
2019,09,20,17,14,21.90
2019,09,20,17,15,21.80
2019,09,20,17,16,21.80
2019,09,20,17,17,21.80
2019,09,20,17,18,21.80
2019,09,20,17,19,21.70